Location: Unspecified
(0.0000°N, 0.0000°E)
Time: 18:47:37
(UTC+00:00)

Explorer 11/Cluster Stage 4 - Pass Details

Date: 26 November 2019
Orbit: 467 x 1259 km, 28.8° (Epoch: 05 December)

Event Time Altitude Azimuth Distance (km) Brightness Sun altitude
Rises 22:14:12 0° 325° (NW) 3,375 - -59.0°
Reaches altitude 10° 22:17:03 10° 339° (NNW) 2,580 - -59.5°
Maximum altitude 22:22:06 25° 32° (NNE) 1,950 - -60.4°
Drops below altitude 10° 22:27:56 10° 83° (E) 3,018 - -61.4°
Sets 22:31:33 0° 95° (E) 4,080 - -62.0°
